Weather History for CYYG - January, 2014

Change the Weather History Date:

Tuesday, January 7, 2014

  Actual Average Record
Temperature  
Mean Temperature 26 °F -  
Max Temperature 46 °F 26 °F 50 °F (2007)
Min Temperature 6 °F 10 °F 0 °F (2015)
Degree Days  
Heating Degree Days 39    
Moisture  
Dew Point 19 °F    
Average Humidity 71    
Maximum Humidity 100    
Minimum Humidity 29    
Precipitation  
Precipitation 0.04 in 0.14 in - ()
Sea Level Pressure  
Sea Level Pressure 29.32 in    
Wind  
Wind Speed 16 mph ()    
Max Wind Speed 29 mph    
Max Gust Speed 41 mph    
Visibility 11.3 miles    
Events Fog , Rain , Snow    
Averages and records for this station are not official NWS values.
T = Trace of Precipitation, MM = Missing Value Source: Averaged Metar Reports

Daily Weather History Graph

Daily Weather History Graph

Search for Another Location

Airport or City:

Trip Planner

Search our weather history database for the weather conditions in past years. The results will help you decide how hot, cold, wet, or windy it might be!

Date:

Astronomy

Jan. 07, 2014 Rise Set
Actual Time 7:54 AM AST 4:43 PM AST
Civil Twilight 7:20 AM AST 5:17 PM AST
Nautical Twilight 6:42 AM AST 5:55 PM AST
Astronomical Twilight 6:06 AM AST 6:31 PM AST
Moon 11:15 AM AST (1/7) No Moon Set
Length of Visible Light 9h 56m
Length of Day
8h 48m
Waxing Crescent, 45% of the Moon is Illuminated
Jan 7
Waxing Crescent
Jan 7
First Quarter
Jan 16
Full
Jan 24
Last Quarter
Jan 30
New

Hourly Weather History & Observations

Time (AST) Temp. Windchill Dew Point Humidity Pressure Visibility Wind Dir Wind Speed Gust Speed Precip Events Conditions
12:00 AM 44.6 °F 36.9 °F 44.6 °F 100% 29.18 in 0.1 mi SSE 18.4 mph 27.6 mph N/A Fog , Rain Light Rain Showers
12:30 AM 46.4 °F 39.2 °F 46.4 °F 100% 29.15 in 0.2 mi South 18.4 mph 26.5 mph N/A Fog , Rain Light Rain Showers
1:00 AM 44.6 °F 36.9 °F 44.6 °F 100% 29.12 in 0.1 mi South 18.4 mph - N/A Fog , Rain Light Rain Showers
1:22 AM 44.6 °F 36.4 °F 44.6 °F 100% 29.12 in 0.4 mi South 20.7 mph 26.5 mph N/A Fog , Rain Light Rain Showers
2:00 AM 45 °F - 45 °F 100% 29.11 in 0 mi South 15.0 mph - - Rain Light Rain Showers
2:00 AM 44.6 °F 38.1 °F 44.6 °F 100% 29.10 in 0.1 mi South 13.8 mph 21.9 mph N/A Fog , Rain Light Rain Showers
2:38 AM 44.6 °F 39.2 °F 44.6 °F 100% 29.11 in 0.4 mi SW 10.4 mph - N/A Fog , Rain Light Rain Showers
2:48 AM 44.6 °F 39.2 °F 44.6 °F 100% 29.10 in 8.0 mi SSW 10.4 mph - N/A Rain Light Rain Showers
3:00 AM 42.8 °F 35.8 °F 42.8 °F 100% 29.05 in 8.0 mi South 13.8 mph - N/A Rain Light Rain Showers
4:00 AM 44.6 °F 37.4 °F 42.8 °F 93% 29.06 in 12.0 mi SW 16.1 mph 28.8 mph N/A Rain Light Rain Showers
4:42 AM 42.8 °F 33.8 °F 39.2 °F 87% 29.08 in 15.0 mi SW 21.9 mph 33.4 mph N/A   Overcast
5:00 AM 41.0 °F 32.5 °F 37.4 °F 87% 29.09 in 15.0 mi SW 17.3 mph 25.3 mph N/A   Overcast
5:09 AM 41.0 °F 32.2 °F 37.4 °F 87% 29.10 in 15.0 mi WSW 18.4 mph 27.6 mph N/A Rain Light Rain Showers
6:00 AM 35.6 °F 26.6 °F 32.0 °F 87% 29.14 in 12.0 mi West 13.8 mph 21.9 mph N/A Rain Light Rain Showers
6:20 AM 33.8 °F 23.5 °F 32.0 °F 93% 29.16 in 15.0 mi WSW 16.1 mph 31.1 mph N/A   Overcast
7:00 AM 32.0 °F 19.8 °F 26.6 °F 80% 29.19 in 15.0 mi WSW 20.7 mph 26.5 mph N/A   Mostly Cloudy
8:00 AM 29 °F - 20 °F 58% 29.25 in 15 mi WSW 20.7 mph - -   Partly Cloudy
8:00 AM 28.4 °F 15.1 °F 19.4 °F 69% 29.25 in 15.0 mi WSW 20.7 mph 33.4 mph N/A   Scattered Clouds
9:00 AM 26.6 °F 15.2 °F 19.4 °F 74% 29.31 in 15.0 mi West 13.8 mph 27.6 mph N/A   Mostly Cloudy
10:00 AM 23.0 °F 6.6 °F 12.2 °F 63% 29.37 in 15.0 mi West 25.3 mph 36.8 mph N/A   Partly Cloudy
11:00 AM 23.0 °F 11.1 °F 10.4 °F 59% 29.39 in 15.0 mi WSW 12.7 mph 26.5 mph N/A   Partly Cloudy
12:00 PM 23.0 °F 9.6 °F 8.6 °F 54% 29.37 in 15.0 mi WSW 16.1 mph 23.0 mph N/A   Partly Cloudy
1:00 PM 23.0 °F 10.1 °F 6.8 °F 50% 29.35 in 15.0 mi WSW 15.0 mph - N/A   Scattered Clouds
2:00 PM 22 °F - 7 °F 38% 29.34 in 15 mi West 11.5 mph - -   Overcast
2:00 PM 23.0 °F 12.4 °F 6.8 °F 50% 29.34 in 15.0 mi West 10.4 mph 20.7 mph N/A   Overcast
2:31 PM 21.2 °F 5.6 °F 6.8 °F 54% 29.36 in 12.0 mi West 20.7 mph 32.2 mph N/A Snow Light Snow Showers
3:00 PM 19.4 °F 4.1 °F 8.6 °F 63% 29.38 in 15.0 mi West 18.4 mph 28.8 mph N/A Snow Light Snow Showers
3:39 PM 19.4 °F 5.0 °F 8.6 °F 63% 29.39 in 15.0 mi West 16.1 mph 31.1 mph N/A   Mostly Cloudy
4:00 PM 19.4 °F 5.5 °F 6.8 °F 58% 29.39 in 15.0 mi West 15.0 mph 25.3 mph N/A   Mostly Cloudy
5:00 PM 17.6 °F 1.7 °F 3.2 °F 53% 29.44 in 20.0 mi WSW 18.4 mph 25.3 mph N/A   Mostly Cloudy
5:21 PM 15.8 °F -0.6 °F 5.0 °F 62% 29.46 in 10.0 mi West 18.4 mph 29.9 mph N/A Snow Light Snow Showers
5:47 PM 15.8 °F -3.4 °F 3.2 °F 58% 29.49 in 3.0 mi WSW 26.5 mph 41.4 mph N/A Snow Light Snow Showers
6:00 PM 14.0 °F -3.9 °F 5.0 °F 67% 29.50 in 10.0 mi West 20.7 mph 31.1 mph N/A Snow Light Snow Showers
7:00 PM 12.2 °F -7.9 °F -2.2 °F 53% 29.56 in 12.0 mi WSW 25.3 mph 40.3 mph N/A Snow Light Snow Showers
8:00 PM 9 °F - -8 °F 29% 29.63 in 15 mi West 25.3 mph - - Snow Light Snow Showers
8:00 PM 8.6 °F -12.3 °F -7.6 °F 48% 29.63 in 15.0 mi WSW 24.2 mph 38.0 mph N/A Snow Light Snow Showers
8:35 PM 8.6 °F -13.8 °F -9.4 °F 44% 29.67 in 15.0 mi West 28.8 mph 39.1 mph N/A   Mostly Cloudy
9:00 PM 8.6 °F -12.7 °F -7.6 °F 48% 29.70 in 15.0 mi West 25.3 mph 38.0 mph N/A   Mostly Cloudy
10:00 PM 6.8 °F -15.1 °F -9.4 °F 48% 29.72 in 15.0 mi West 25.3 mph 41.4 mph N/A   Scattered Clouds
11:00 PM 8.6 °F -9.5 °F -7.6 °F 48% 29.76 in 15.0 mi West 17.3 mph 38.0 mph N/A   Mostly Cloudy